Regional Weather Roundup
Issued by NWS Wilmington, NC

Home | Current Version | Previous Version | Text Only | Print | Product List | Glossary On
Versions: 1 2 3 4 5 6 7 8 9 10 11 12 13 14 15 16 17 18 19 20 21 22 23 24 25 26 27 28 29 30 31 32 33 34 35 36 37 38 39 40 41 42 43 44 45 46 47 48 49 50
750
ASUS42 KILM 022113
RWRILM
RWRILM
REGIONAL HOURLY WEATHER ROUNDUP
NATIONAL WEATHER SERVICE WILMINGTON NC
500 PM EDT MON MAY 02 2016

NOTE: "FAIR" INDICATES FEW OR NO CLOUDS BELOW 12,000 FEET WITH NO
SIGNIFICANT WEATHER AND/OR OBSTRUCTIONS TO VISIBILITY.

...............WFO WILMINGTON COUNTY WARNING AREA...............

......COASTAL NC AND SC COUNTIES......

CITY           SKY/WX    TMP DP  RH WIND       PRES   REMARKS
WILMINGTON     SUNNY     82  64  54 S17G26    29.95F
N MYRTLE BEACH MOSUNNY   77  70  79 S14       29.96F
MYRTLE BEACH   MOSUNNY   79  66  65 S17       29.97F

......INLAND NC AND SC COUNTIES.......

CITY           SKY/WX    TMP DP  RH WIND       PRES   REMARKS
LUMBERTON      CLOUDY    74  68  81 E3        29.92S
ELIZABETHTOWN  RAIN      68  65  90 NW13      29.94S
WHITEVILLE     SUNNY     83  69  64 S10G16    29.93F
FLORENCE       CLOUDY    84  68  58 S10       29.91F
DARLINGTON     CLOUDY    81  69  67 S10       29.92S
KINGSTREE      FAIR      77  63  61 E7        29.93F
HARTSVILLE     FAIR      79  66  65 S8        29.91F
BENNETTSVILLE  FAIR      79  72  78 E6        29.90F
CONWAY         FAIR      79  72  78 S6        29.94F
GEORGETOWN     FAIR      81  66  61 S10       29.97F
MARION         PTSUNNY   79  68  69 SE9       29.93F

....................REST OF NORTH CAROLINA......................

.........EASTERN NC.........

CITY           SKY/WX    TMP DP  RH WIND       PRES   REMARKS
CAPE HATTERAS  MOSUNNY   74  68  81 SW13G22   29.97F
JACKSONVILLE   CLOUDY    79  70  74 S12       29.94F
MOREHEAD CITY  CLOUDY    74  69  85 S16       29.97F
KENANSVILLE    CLOUDY    81  67  63 CALM      29.94S
NEW BERN       PTSUNNY   80  66  62 S17G23    29.94F
ELIZABETH CITY MOSUNNY   83  68  60 S12       29.90F

.........CENTRAL NC.........

CITY           SKY/WX    TMP DP  RH WIND       PRES   REMARKS
RALEIGH DURHAM TSTM      72  63  73 SW24G35   29.94R FOG
ROCKY MOUNT    MOSUNNY   81  67  62 S9        29.89F
ROANOKE RAPIDS NOT AVBL
FAYETTEVILLE   CLOUDY    76  62  62 CALM      29.92F
HOFFMAN        NOT AVBL

.........WESTERN NC.........

CITY           SKY/WX    TMP DP  RH WIND       PRES   REMARKS
CHARLOTTE      PTSUNNY   75  68  78 S6        29.92F
GREENSBORO     TSTM      70  64  83 SW13G36   29.90S
HICKORY        NOT AVBL
BOONE          NOT AVBL
ASHEVILLE      NOT AVBL

.....................REST OF SOUTH CAROLINA.....................

.........EASTERN SC.........

CITY           SKY/WX    TMP DP  RH WIND       PRES   REMARKS
CHARLESTON     CLOUDY    83  64  52 SW15      29.96F
BEAUFORT MCAS  TSTM      74  71  91 CALM      29.97F
HILTON HEAD    NOT AVBL

.........CENTRAL SC.........

CITY           SKY/WX    TMP DP  RH WIND       PRES   REMARKS
COLUMBIA       CLOUDY    76  70  82 NW5       29.91F
ORANGEBURG     MOSUNNY   85  67  54 S6        29.92F
SUMTER SHAW    NOT AVBL

.........WESTERN SC.........

CITY           SKY/WX    TMP DP  RH WIND       PRES   REMARKS
GREENVILLE     NOT AVBL
ROCK HILL      SUNNY     77  66  68 VRB6      29.92S
ANDERSON       MOSUNNY   83  65  54 S13       29.90F
CLEMSON        NOT AVBL
GREENWOOD      TSTM      71  64  78 SE9       29.94F


...................COASTAL AND OFFSHORE REPORTS..................

................LOCAL PIERS AND NC RESERVE................


STATION/POSITION TIME  SKY/WX   TEMP    WIND        PRES    VSBY
                                AIR SEA DIR/SP/G
                 (UTC)          (F)     (DEG/KT/KT) (MB)    (MI)
JOHNY MRCER PIER 2000            72 70  180/ 19/ 21 1013.8F
NC RESRV MASNBRO NOT AVBL
OCEAN CREST PIER NOT AVBL
SPRINGMAID  PIER 2000            74 70  160/ 14/ 16 1014.6F


................COASTAL AND OFFSHORE BUOYS................


STATION/POSITION TIME  SKY/WX   TEMP    WIND        PRES    VSBY
                                AIR SEA DIR/SP/G
                 (UTC)          (F)     (DEG/KT/KT) (MB)    (MI)
DIMNDSHOAL 41025 2050            75 74  210/ 17/ 19 1014.8F
WVE H/P(F/S)=  4/11 SWL H/P/D(F/S/D)=  3/100/11

CAPE LOOKOUT     2100            74     200/ 13/ 16 1014.6F
ONSLOW BAY 41036 NOT AVBL
ONSLOW BAY 41064 NOT AVBL
ONSLOW BAY 41159 2025               70                N/A
WVE H/P(F/S)=  4/ 5 SWL H/P/D(F/S/D)=  2/ 90/12

5SE WRITBC 41038 2008            73 70  200/ 14/ 17 1015.5F
MASNBO INL 41110 2006               70                N/A
WVE H/P(F/S)=  3/ 5

WILM HARBR 41108 2026               72                N/A
WVE H/P(F/S)=  3/ 5

27SE WRITB 41037 2008            74 72  200/ 10/ 12 1016.0F
FRYING PAN 41013 2000            75 74  170/  8/ 10 1016.0F
SUNST NRSH 41024 2008            73 72  190/ 12/ 16 1014.7F
CAPRS NRSH 41029 2008            75 75  200/ 10/ 14 1015.1F
EDISTO     41004 2050            76 76  190/ 10/ 12 1015.2F
WVE H/P(F/S)=  3/ 6 SWL H/P/D(F/S/D)=  2/ 6



..........OFFSHORE BUOYS BEYOND 100 NM OFFSHORE...........
.....IN A TRIANGLE---HAT TO BERMUDA TO BAHAMAS TO HAT.....


STATION/POSITION TIME  SKY/WX   TEMP    WIND        PRES    VSBY
                                AIR SEA DIR/SP/G
                 (UTC)          (F)     (DEG/KT/KT) (MB)    (MI)
150E HAT   41001 NOT AVBL
W BERMUDA  41048 1950            71 73  160/  2/  4 1021.3
WVE H/P(F/S)=  4/10 SWL H/P/D(F/S/D)=  3/ 30/10

ATLANTIC S 41049 2050            75 78  360/  4/  6 1019.8S
WVE H/P(F/S)=  4/ 9 SWL H/P/D(F/S/D)=  5/ 70/ 9

E BAHAMAS  41046 2050            79 80   90/ 14/ 16 1017.8F
WVE H/P(F/S)=  4/ 9 SWL H/P/D(F/S/D)=  3/ 20/ 9

NE BAHAMAS 41047 2050            76 78  100/ 10/ 12 1019.5F
WVE H/P(F/S)=  5/ 9 SWL H/P/D(F/S/D)=  5/ 70/ 9

120E CANVRL41010 2020            78 79  150/ 14/ 16 1017.0F

END




USA.gov is the U.S. government's official web portal to all federal, state and local government web resources and services.